Year,Month,Day,Hour,Minute,Value (Times are PST for windspeed in km/hr)
2016,11,23,00,01,0.40
2016,11,23,00,02,0.00
2016,11,23,00,03,1.50
2016,11,23,00,04,1.30
2016,11,23,00,06,1.30
2016,11,23,00,07,1.10
2016,11,23,00,09,0.70
2016,11,23,00,10,0.40
2016,11,23,00,12,1.50
2016,11,23,00,13,1.90
2016,11,23,00,14,1.70
2016,11,23,00,16,4.80
2016,11,23,00,17,4.30
2016,11,23,00,18,4.40
2016,11,23,00,19,6.50
2016,11,23,00,21,3.10
2016,11,23,00,22,4.40
2016,11,23,00,23,5.70
2016,11,23,00,24,4.10
2016,11,23,00,26,4.80
2016,11,23,00,27,4.30
2016,11,23,00,28,2.80
2016,11,23,00,29,3.90
2016,11,23,00,31,5.60
2016,11,23,00,32,8.10
2016,11,23,00,33,6.10
2016,11,23,00,34,3.70
2016,11,23,00,36,3.30
2016,11,23,00,37,2.20
2016,11,23,00,38,3.90
2016,11,23,00,39,5.70
2016,11,23,00,41,6.30
2016,11,23,00,42,5.60
2016,11,23,00,43,4.40
2016,11,23,00,44,5.90
2016,11,23,00,46,5.40
2016,11,23,00,47,5.40
2016,11,23,00,48,6.30
2016,11,23,00,49,5.60
2016,11,23,00,51,5.00
2016,11,23,00,52,6.10
2016,11,23,00,53,5.60
2016,11,23,00,54,6.70
2016,11,23,00,56,5.90
2016,11,23,00,57,7.80
2016,11,23,00,58,8.00
2016,11,23,00,59,7.60
2016,11,23,01,01,7.00
2016,11,23,01,02,7.60
2016,11,23,01,03,7.40
2016,11,23,01,04,8.90
2016,11,23,01,06,9.60
2016,11,23,01,07,9.80
2016,11,23,01,08,8.70
2016,11,23,01,09,8.00
2016,11,23,01,11,8.00
2016,11,23,01,12,6.90
2016,11,23,01,13,6.70
2016,11,23,01,14,5.60
2016,11,23,01,15,4.10
2016,11,23,01,16,4.60
2016,11,23,01,17,5.40
2016,11,23,01,18,4.80
2016,11,23,01,19,5.60
2016,11,23,01,20,7.20
2016,11,23,01,21,9.40
2016,11,23,01,22,10.90
2016,11,23,01,23,8.90
2016,11,23,01,24,12.20
2016,11,23,01,25,11.30
2016,11,23,01,26,12.00
2016,11,23,01,27,11.30
2016,11,23,01,28,12.60
2016,11,23,01,29,14.60
2016,11,23,01,30,13.50
2016,11,23,01,31,11.70
2016,11,23,01,32,13.10
2016,11,23,01,33,15.00
2016,11,23,01,34,14.30
2016,11,23,01,36,11.90
2016,11,23,01,37,14.10
2016,11,23,01,38,14.30
2016,11,23,01,39,17.20
2016,11,23,01,40,14.30
2016,11,23,01,41,15.40
2016,11,23,01,42,15.90
2016,11,23,01,43,16.70
2016,11,23,01,44,17.20
2016,11,23,01,45,13.10
2016,11,23,01,46,13.50
2016,11,23,01,47,13.10
2016,11,23,01,48,12.40
2016,11,23,01,49,14.10
2016,11,23,01,50,18.00
2016,11,23,01,51,17.20
2016,11,23,01,52,15.90
2016,11,23,01,53,17.00
2016,11,23,01,54,18.00
2016,11,23,01,55,19.10
2016,11,23,01,56,18.00
2016,11,23,01,57,18.10
2016,11,23,01,58,19.30
2016,11,23,01,59,16.90
2016,11,23,02,00,20.20
2016,11,23,02,01,19.60
2016,11,23,02,02,19.30
2016,11,23,02,03,14.10
2016,11,23,02,04,13.00
2016,11,23,02,05,15.00
2016,11,23,02,06,19.40
2016,11,23,02,07,23.90
2016,11,23,02,08,20.90
2016,11,23,02,09,23.00
2016,11,23,02,10,21.50
2016,11,23,02,11,19.30
2016,11,23,02,12,22.40
2016,11,23,02,13,20.20
2016,11,23,02,14,19.60
2016,11,23,02,15,19.10
2016,11,23,02,16,21.50
2016,11,23,02,17,20.70
2016,11,23,02,18,20.90
2016,11,23,02,19,20.40
2016,11,23,02,20,21.30
2016,11,23,02,21,20.90
2016,11,23,02,22,20.40
2016,11,23,02,23,20.90
2016,11,23,02,24,20.00
2016,11,23,02,25,19.30
2016,11,23,02,26,21.30
2016,11,23,02,27,21.50
2016,11,23,02,28,21.90
2016,11,23,02,29,22.00
2016,11,23,02,30,21.30
2016,11,23,02,31,20.60
2016,11,23,02,32,21.10
2016,11,23,02,33,22.00
2016,11,23,02,34,20.60
2016,11,23,02,35,22.00
2016,11,23,02,36,21.10
2016,11,23,02,37,21.50
2016,11,23,02,38,21.90
2016,11,23,02,39,20.00
2016,11,23,02,40,20.90
2016,11,23,02,42,19.60
2016,11,23,02,43,19.60
2016,11,23,02,44,20.90
2016,11,23,02,46,20.90
2016,11,23,02,47,17.80
2016,11,23,02,48,18.00
2016,11,23,02,49,18.50
2016,11,23,02,51,16.30
2016,11,23,02,52,15.20
2016,11,23,02,53,14.60
2016,11,23,02,54,15.90
2016,11,23,02,56,13.00
2016,11,23,02,57,13.70
2016,11,23,02,58,15.20
2016,11,23,02,59,12.80
2016,11,23,03,01,15.00
2016,11,23,03,02,11.10
2016,11,23,03,03,13.30
2016,11,23,03,04,12.40
2016,11,23,03,06,9.30
2016,11,23,03,07,9.40
2016,11,23,03,08,9.40
2016,11,23,03,09,11.90
2016,11,23,03,11,10.90
2016,11,23,03,12,10.20
2016,11,23,03,13,14.60
2016,11,23,03,14,9.80
2016,11,23,03,16,11.70
2016,11,23,03,17,9.60
2016,11,23,03,18,10.40
2016,11,23,03,19,10.70
2016,11,23,03,21,9.80
2016,11,23,03,22,8.90
2016,11,23,03,23,9.40
2016,11,23,03,24,7.40
2016,11,23,03,26,8.50
2016,11,23,03,27,7.80
2016,11,23,03,28,5.90
2016,11,23,03,29,5.20
2016,11,23,03,31,4.30
2016,11,23,03,32,3.70
2016,11,23,03,33,4.40
2016,11,23,03,34,3.50
2016,11,23,03,36,5.60
2016,11,23,03,37,4.30
2016,11,23,03,38,3.50
2016,11,23,03,39,4.60
2016,11,23,03,41,2.60
2016,11,23,03,42,2.20
2016,11,23,03,43,3.30
2016,11,23,03,44,4.40
2016,11,23,03,46,5.90
2016,11,23,03,47,5.90
2016,11,23,03,48,7.40
2016,11,23,03,49,7.00
2016,11,23,03,51,6.50
2016,11,23,03,52,7.60
2016,11,23,03,53,10.40
2016,11,23,03,54,10.60
2016,11,23,03,55,13.00
2016,11,23,03,56,11.10
2016,11,23,03,57,10.00
2016,11,23,03,58,12.80
2016,11,23,03,59,13.00
2016,11,23,04,00,11.90
2016,11,23,04,01,14.10
2016,11,23,04,02,13.50
2016,11,23,04,03,14.30
2016,11,23,04,04,12.20
2016,11,23,04,06,12.20
2016,11,23,04,07,13.10
2016,11,23,04,08,12.60
2016,11,23,04,09,11.50
2016,11,23,04,10,11.30
2016,11,23,04,11,15.00
2016,11,23,04,12,14.30
2016,11,23,04,13,15.20
2016,11,23,04,14,13.90
2016,11,23,04,15,14.30
2016,11,23,04,16,10.90
2016,11,23,04,17,15.90
2016,11,23,04,18,13.90
2016,11,23,04,19,14.30
2016,11,23,04,20,14.30
2016,11,23,04,21,15.90
2016,11,23,04,22,14.60
2016,11,23,04,23,13.90
2016,11,23,04,24,16.10
2016,11,23,04,25,13.30
2016,11,23,04,26,16.10
2016,11,23,04,27,13.50
2016,11,23,04,28,12.40
2016,11,23,04,29,11.50
2016,11,23,04,30,13.90
2016,11,23,04,31,15.40
2016,11,23,04,32,14.60
2016,11,23,04,33,14.60
2016,11,23,04,34,16.30
2016,11,23,04,35,10.20
2016,11,23,04,36,8.90
2016,11,23,04,37,9.60
2016,11,23,04,38,10.90
2016,11,23,04,39,10.70
2016,11,23,04,40,8.70
2016,11,23,04,41,9.80
2016,11,23,04,42,8.50
2016,11,23,04,43,11.70
2016,11,23,04,44,8.00
2016,11,23,04,45,8.70
2016,11,23,04,46,9.40
2016,11,23,04,47,11.10
2016,11,23,04,48,14.30
2016,11,23,04,49,14.60
2016,11,23,04,50,15.20
2016,11,23,04,51,15.20
2016,11,23,04,52,10.90
2016,11,23,04,53,11.90
2016,11,23,04,54,12.20
2016,11,23,04,55,14.30
2016,11,23,04,57,16.10
2016,11,23,04,58,14.40
2016,11,23,04,59,13.50
2016,11,23,05,01,15.60
2016,11,23,05,02,18.30
2016,11,23,05,03,16.50
2016,11,23,05,04,15.60
2016,11,23,05,06,21.50
2016,11,23,05,07,25.20
2016,11,23,05,08,23.90
2016,11,23,05,09,23.10
2016,11,23,05,11,23.00
2016,11,23,05,12,22.00
2016,11,23,05,13,20.70
2016,11,23,05,14,23.70
2016,11,23,05,16,23.70
2016,11,23,05,17,25.90
2016,11,23,05,18,24.30
2016,11,23,05,19,22.80
2016,11,23,05,21,26.10
2016,11,23,05,22,20.20
2016,11,23,05,23,21.30
2016,11,23,05,24,20.70
2016,11,23,05,26,24.10
2016,11,23,05,27,26.50
2016,11,23,05,28,26.10
2016,11,23,05,29,25.20
2016,11,23,05,31,22.40
2016,11,23,05,32,21.70
2016,11,23,06,27,18.30
2016,11,23,06,28,24.30
2016,11,23,06,29,20.90
2016,11,23,06,30,20.70
2016,11,23,06,31,21.10
2016,11,23,06,32,22.60
2016,11,23,06,33,20.70
2016,11,23,06,34,22.80
2016,11,23,06,35,23.50
2016,11,23,06,36,21.30
2016,11,23,06,37,24.40
2016,11,23,06,38,23.10
2016,11,23,06,39,23.00
2016,11,23,06,40,25.20
2016,11,23,06,41,26.70
2016,11,23,06,42,23.70
2016,11,23,06,44,21.50
2016,11,23,06,46,23.90
2016,11,23,06,47,24.40
2016,11,23,06,48,24.40
2016,11,23,06,49,21.10
2016,11,23,06,51,26.30
2016,11,23,06,52,22.20
2016,11,23,06,53,21.30
2016,11,23,06,54,20.70
2016,11,23,06,56,20.90
2016,11,23,06,57,23.70
2016,11,23,06,58,22.60
2016,11,23,06,59,20.60
2016,11,23,07,01,19.30
2016,11,23,07,02,20.90
2016,11,23,07,03,22.40
2016,11,23,07,04,21.50
2016,11,23,07,06,18.90
2016,11,23,07,07,18.00
2016,11,23,07,08,18.90
2016,11,23,07,09,21.50
2016,11,23,07,11,21.10
2016,11,23,07,12,21.30
2016,11,23,07,13,20.90
2016,11,23,07,14,20.90
2016,11,23,07,16,22.20
2016,11,23,07,17,19.60
2016,11,23,07,18,22.20
2016,11,23,07,19,22.20
2016,11,23,07,21,20.20
2016,11,23,07,22,20.70
2016,11,23,07,23,20.70
2016,11,23,07,24,18.30
2016,11,23,07,26,20.60
2016,11,23,07,27,19.40
2016,11,23,07,28,16.70
2016,11,23,07,29,21.10
2016,11,23,07,31,22.20
2016,11,23,07,32,21.30
2016,11,23,07,33,18.10
2016,11,23,07,34,16.90
2016,11,23,07,36,19.40
2016,11,23,07,37,17.80
2016,11,23,07,38,15.90
2016,11,23,07,39,18.50
2016,11,23,07,41,18.90
2016,11,23,07,42,19.80
2016,11,23,07,43,18.90
2016,11,23,07,44,20.20
2016,11,23,07,46,20.00
2016,11,23,07,47,21.10
2016,11,23,07,48,21.30
2016,11,23,07,49,21.10
2016,11,23,07,51,19.30
2016,11,23,07,52,21.70
2016,11,23,07,53,22.20
2016,11,23,07,54,20.60
2016,11,23,07,56,19.60
2016,11,23,07,57,21.90
2016,11,23,07,58,20.40
2016,11,23,07,59,20.60
2016,11,23,08,00,21.10
2016,11,23,08,01,19.80
2016,11,23,08,02,21.90
2016,11,23,08,03,22.40
2016,11,23,08,04,23.50
2016,11,23,08,06,24.30
2016,11,23,08,07,22.80
2016,11,23,08,08,23.00
2016,11,23,08,09,23.70
2016,11,23,08,10,21.90
2016,11,23,08,11,23.70
2016,11,23,08,12,21.50
2016,11,23,08,13,22.80
2016,11,23,08,14,21.50
2016,11,23,08,15,23.10
2016,11,23,08,16,23.30
2016,11,23,08,17,24.30
2016,11,23,08,18,24.30
2016,11,23,08,19,24.40
2016,11,23,08,20,23.90
2016,11,23,08,21,24.40
2016,11,23,08,22,22.60
2016,11,23,08,23,26.30
2016,11,23,08,24,23.00
2016,11,23,08,25,23.50
2016,11,23,08,26,24.80
2016,11,23,08,27,24.10
2016,11,23,08,28,24.80
2016,11,23,08,29,24.40
2016,11,23,08,30,21.90
2016,11,23,08,31,22.80
2016,11,23,08,32,22.40
2016,11,23,08,33,22.00
2016,11,23,08,34,23.50
2016,11,23,08,35,23.10
2016,11,23,08,36,23.70
2016,11,23,08,37,22.00
2016,11,23,08,38,21.10
2016,11,23,08,39,23.00
2016,11,23,08,40,25.70
2016,11,23,08,41,22.60
2016,11,23,08,42,22.40
2016,11,23,08,43,25.60
2016,11,23,08,44,25.70
2016,11,23,08,45,25.20
2016,11,23,08,46,23.10
2016,11,23,08,47,23.50
2016,11,23,08,48,23.70
2016,11,23,08,49,24.60
2016,11,23,08,50,25.90
2016,11,23,08,51,23.00
2016,11,23,08,52,22.40
2016,11,23,08,53,20.90
2016,11,23,08,54,20.40
2016,11,23,08,55,25.40
2016,11,23,08,56,23.30
2016,11,23,08,57,21.90
2016,11,23,08,58,22.60
2016,11,23,08,59,24.10
2016,11,23,09,00,24.30
2016,11,23,09,01,21.50
2016,11,23,09,02,21.50
2016,11,23,09,03,17.40
2016,11,23,09,04,19.60
2016,11,23,09,05,20.70
2016,11,23,09,07,17.20
2016,11,23,09,08,18.70
2016,11,23,09,09,18.10
2016,11,23,09,11,17.20
2016,11,23,09,12,16.90
2016,11,23,09,13,16.10
2016,11,23,09,14,14.30
2016,11,23,09,16,12.00
2016,11,23,09,17,15.70
2016,11,23,09,18,13.70
2016,11,23,09,19,15.20
2016,11,23,09,21,17.00
2016,11,23,09,22,13.10
2016,11,23,09,23,13.30
2016,11,23,09,24,12.20
2016,11,23,09,26,15.00
2016,11,23,09,27,14.80
2016,11,23,09,28,16.10
2016,11,23,09,29,14.10
2016,11,23,09,31,12.60
2016,11,23,09,32,11.10
2016,11,23,09,33,12.20
2016,11,23,09,34,14.30
2016,11,23,09,36,14.80
2016,11,23,09,37,11.50
2016,11,23,09,38,13.30
2016,11,23,09,39,13.30
2016,11,23,09,41,15.60
2016,11,23,09,42,14.30
2016,11,23,09,43,9.30
2016,11,23,09,44,17.60
2016,11,23,09,46,14.10
2016,11,23,09,47,13.70
2016,11,23,09,48,15.00
2016,11,23,09,49,14.60
2016,11,23,09,51,12.40
2016,11,23,09,52,12.80
2016,11,23,09,53,13.70
2016,11,23,09,54,15.00
2016,11,23,09,56,14.30
2016,11,23,09,57,15.00
2016,11,23,09,58,15.60
2016,11,23,09,59,11.90
2016,11,23,10,01,13.10
2016,11,23,10,02,11.90
2016,11,23,10,03,12.80
2016,11,23,10,04,11.90
2016,11,23,10,06,11.30
2016,11,23,10,07,12.40
2016,11,23,10,08,16.30
2016,11,23,10,09,12.40
2016,11,23,10,11,11.70
2016,11,23,10,12,12.40
2016,11,23,10,13,12.20
2016,11,23,10,14,10.20
2016,11,23,10,16,11.90
2016,11,23,10,17,13.90
2016,11,23,10,18,15.90
2016,11,23,10,19,15.60
2016,11,23,10,20,15.40
2016,11,23,10,21,13.00
2016,11,23,10,22,15.20
2016,11,23,10,23,13.00
2016,11,23,10,24,12.80
2016,11,23,10,25,14.40
2016,11,23,10,26,12.60
2016,11,23,10,27,13.50
2016,11,23,10,28,10.70
2016,11,23,10,29,9.60
2016,11,23,10,30,11.30
2016,11,23,10,31,13.50
2016,11,23,10,32,14.10
2016,11,23,10,33,10.60
2016,11,23,10,34,11.30
2016,11,23,10,36,12.40
2016,11,23,10,37,10.40
2016,11,23,10,38,9.30
2016,11,23,10,39,9.30
2016,11,23,10,40,10.00
2016,11,23,10,41,11.70
2016,11,23,10,42,11.30
2016,11,23,10,43,9.10
2016,11,23,10,44,7.60
2016,11,23,10,45,7.00
2016,11,23,10,46,7.80
2016,11,23,10,47,7.60
2016,11,23,10,48,8.00
2016,11,23,10,49,10.90
2016,11,23,10,50,9.60
2016,11,23,10,51,9.60
2016,11,23,10,52,9.30
2016,11,23,10,53,8.70
2016,11,23,10,54,9.10
2016,11,23,10,55,9.80
2016,11,23,10,56,8.70
2016,11,23,10,57,10.20
2016,11,23,10,58,11.30
2016,11,23,10,59,9.10
2016,11,23,11,00,8.70
2016,11,23,11,01,7.20
2016,11,23,11,02,7.60
2016,11,23,11,03,7.20
2016,11,23,11,04,6.90
2016,11,23,11,05,7.40
2016,11,23,11,06,7.60
2016,11,23,11,07,7.00
2016,11,23,11,08,7.00
2016,11,23,11,09,5.40
2016,11,23,11,10,5.20
2016,11,23,11,11,4.80
2016,11,23,11,12,6.70
2016,11,23,11,13,7.20
2016,11,23,11,14,6.50
2016,11,23,11,15,6.10
2016,11,23,11,16,6.90
2016,11,23,11,17,8.00
2016,11,23,11,18,7.40
2016,11,23,11,19,7.20
2016,11,23,11,20,7.20
2016,11,23,11,21,6.90
2016,11,23,11,22,6.70
2016,11,23,11,23,5.90
2016,11,23,11,24,5.40
2016,11,23,11,25,3.70
2016,11,23,11,26,5.00
2016,11,23,11,27,5.00
2016,11,23,11,28,3.70
2016,11,23,11,29,4.10
2016,11,23,11,30,4.60
2016,11,23,11,31,4.40
2016,11,23,11,32,4.40
2016,11,23,11,33,3.90
2016,11,23,11,34,3.50
2016,11,23,11,35,3.50
2016,11,23,11,36,3.70
2016,11,23,11,37,3.10
2016,11,23,11,38,5.00
2016,11,23,11,39,5.40
2016,11,23,11,41,4.60
2016,11,23,11,42,6.30
2016,11,23,11,43,7.40
2016,11,23,11,44,7.00
2016,11,23,11,46,6.90
2016,11,23,11,47,6.50
2016,11,23,11,48,4.40
2016,11,23,11,49,5.90
2016,11,23,11,51,4.30
2016,11,23,11,52,4.40
2016,11,23,11,53,5.20
2016,11,23,11,54,3.70
2016,11,23,11,56,6.50
2016,11,23,11,57,5.20
2016,11,23,11,58,5.20
2016,11,23,11,59,5.70
2016,11,23,12,01,3.50
2016,11,23,12,02,3.00
2016,11,23,12,03,5.70
2016,11,23,12,04,5.40
2016,11,23,12,06,7.00
2016,11,23,12,07,8.00
2016,11,23,12,08,8.70
2016,11,23,12,09,8.90
2016,11,23,12,11,7.00
2016,11,23,12,12,7.40
2016,11,23,12,13,6.10
2016,11,23,12,14,5.90
2016,11,23,12,16,7.00
2016,11,23,12,17,6.90
2016,11,23,12,18,7.20
2016,11,23,12,19,7.40
2016,11,23,12,21,9.40
2016,11,23,12,22,9.60
2016,11,23,12,23,9.30
2016,11,23,12,24,11.70
2016,11,23,12,26,10.00
2016,11,23,12,27,8.90
2016,11,23,12,28,7.40
2016,11,23,12,29,9.30
2016,11,23,12,31,8.30
2016,11,23,12,32,7.20
2016,11,23,12,33,5.90
2016,11,23,12,34,7.00
2016,11,23,12,36,10.00
2016,11,23,12,37,9.10
2016,11,23,12,38,9.10
2016,11,23,12,39,9.60
2016,11,23,12,41,10.60
2016,11,23,12,42,10.00
2016,11,23,12,43,10.60
2016,11,23,12,44,10.40
2016,11,23,12,46,10.70
2016,11,23,12,47,8.90
2016,11,23,12,48,8.00
2016,11,23,12,49,10.40
2016,11,23,12,51,13.30
2016,11,23,12,52,13.30
2016,11,23,12,53,15.40
2016,11,23,12,54,10.90
2016,11,23,12,56,10.70
2016,11,23,12,57,10.20
2016,11,23,12,58,11.70
2016,11,23,12,59,12.00
2016,11,23,13,00,13.00
2016,11,23,13,01,11.50
2016,11,23,13,02,12.20
2016,11,23,13,03,13.50
2016,11,23,13,04,12.60
2016,11,23,13,06,13.00
2016,11,23,13,07,13.50
2016,11,23,13,08,15.70
2016,11,23,13,09,14.80
2016,11,23,13,10,15.40
2016,11,23,13,11,15.40
2016,11,23,13,12,15.40
2016,11,23,13,13,15.20
2016,11,23,13,14,13.30
2016,11,23,13,15,14.60
2016,11,23,13,16,16.50
2016,11,23,13,17,15.90
2016,11,23,13,18,13.90
2016,11,23,13,19,11.50
2016,11,23,13,20,12.40
2016,11,23,13,21,10.40
2016,11,23,13,22,10.70
2016,11,23,13,23,11.70
2016,11,23,13,24,12.40
2016,11,23,13,25,11.70
2016,11,23,13,26,10.20
2016,11,23,13,27,12.60
2016,11,23,13,28,12.20
2016,11,23,13,29,11.50
2016,11,23,13,30,14.30
2016,11,23,13,31,12.20
2016,11,23,13,32,10.90
2016,11,23,13,33,10.40
2016,11,23,13,34,10.70
2016,11,23,13,35,10.60
2016,11,23,13,36,9.40
2016,11,23,13,37,9.60
2016,11,23,13,38,7.20
2016,11,23,13,39,6.70
2016,11,23,13,40,7.20
2016,11,23,13,41,7.40
2016,11,23,13,42,7.20
2016,11,23,13,43,8.10
2016,11,23,13,44,8.90
2016,11,23,13,45,10.40
2016,11,23,13,46,8.50
2016,11,23,13,47,9.40
2016,11,23,13,48,9.30
2016,11,23,13,49,7.60
2016,11,23,13,50,6.10
2016,11,23,13,51,7.40
2016,11,23,13,52,7.20
2016,11,23,13,53,7.00
2016,11,23,13,54,6.10
2016,11,23,13,55,5.60
2016,11,23,13,56,5.70
2016,11,23,13,57,4.40
2016,11,23,13,58,5.70
2016,11,23,13,59,5.40
2016,11,23,14,00,5.90
2016,11,23,14,01,5.60
2016,11,23,14,02,5.00
2016,11,23,14,03,5.60
2016,11,23,14,04,5.40
2016,11,23,14,05,6.10
2016,11,23,14,06,5.90
2016,11,23,14,07,4.30
2016,11,23,14,08,4.60
2016,11,23,14,09,3.90
2016,11,23,14,10,4.80
2016,11,23,14,11,4.80
2016,11,23,14,12,5.00
2016,11,23,14,13,4.80
2016,11,23,14,14,5.40
2016,11,23,14,16,5.20
2016,11,23,14,17,5.20
2016,11,23,14,18,2.40
2016,11,23,14,19,2.80
2016,11,23,14,21,1.90
2016,11,23,14,22,2.80
2016,11,23,14,23,2.20
2016,11,23,14,24,1.30
2016,11,23,14,26,1.50
2016,11,23,14,27,0.90
2016,11,23,14,28,1.10
2016,11,23,14,29,3.10
2016,11,23,14,31,3.10
2016,11,23,14,32,3.10
2016,11,23,14,33,7.40
2016,11,23,14,34,7.40
2016,11,23,14,36,9.60
2016,11,23,14,37,7.80
2016,11,23,14,38,7.60
2016,11,23,14,39,8.70
2016,11,23,14,41,7.80
2016,11,23,14,42,8.10
2016,11,23,14,43,7.40
2016,11,23,14,44,7.60
2016,11,23,14,46,6.90
2016,11,23,14,47,8.70
2016,11,23,14,48,7.80
2016,11,23,14,49,6.30
2016,11,23,14,51,6.10
2016,11,23,14,52,5.60
2016,11,23,14,53,5.00
2016,11,23,14,54,3.90
2016,11,23,14,56,3.90
2016,11,23,14,57,3.90
2016,11,23,14,58,5.60
2016,11,23,14,59,4.30
2016,11,23,15,01,5.00
2016,11,23,15,02,4.60
2016,11,23,15,03,3.30
2016,11,23,15,04,3.10
2016,11,23,15,06,3.90
2016,11,23,15,07,3.90
2016,11,23,15,08,1.30
2016,11,23,15,09,2.40
2016,11,23,15,11,2.00
2016,11,23,15,12,3.00
2016,11,23,15,13,2.40
2016,11,23,15,14,1.90
2016,11,23,15,16,3.70
2016,11,23,15,17,3.30
2016,11,23,15,18,3.30
2016,11,23,15,19,3.10
2016,11,23,15,21,3.00
2016,11,23,15,22,3.70
2016,11,23,15,23,4.80
2016,11,23,15,24,5.60
2016,11,23,15,26,5.90
2016,11,23,15,27,8.00
2016,11,23,15,28,8.00
2016,11,23,15,29,7.80
2016,11,23,15,31,8.50
2016,11,23,15,32,9.80
2016,11,23,15,33,11.50
2016,11,23,15,34,13.00
2016,11,23,15,36,14.30
2016,11,23,15,37,13.50
2016,11,23,15,38,13.70
2016,11,23,15,39,15.40
2016,11,23,15,40,14.80
2016,11,23,15,41,14.40
2016,11,23,15,42,13.10
2016,11,23,15,43,11.50
2016,11,23,15,44,12.20
2016,11,23,15,45,12.60
2016,11,23,15,46,13.00
2016,11,23,15,47,10.90
2016,11,23,15,48,12.20
2016,11,23,15,49,14.60
2016,11,23,15,50,13.90
2016,11,23,15,51,13.30
2016,11,23,15,52,14.80
2016,11,23,15,53,16.70
2016,11,23,15,54,16.70
2016,11,23,15,55,17.00
2016,11,23,15,56,20.70
2016,11,23,15,57,20.90
2016,11,23,15,58,19.80
2016,11,23,15,59,20.20
2016,11,23,16,00,20.40
2016,11,23,16,01,19.40
2016,11,23,16,02,18.00
2016,11,23,16,03,18.10
2016,11,23,16,04,18.50
2016,11,23,16,05,19.60
2016,11,23,16,06,20.00
2016,11,23,16,07,17.60
2016,11,23,16,08,17.80
2016,11,23,16,09,18.30
2016,11,23,16,10,16.50
2016,11,23,16,11,18.50
2016,11,23,16,12,17.40
2016,11,23,16,13,19.40
2016,11,23,16,14,20.00
2016,11,23,16,15,19.80
2016,11,23,16,16,19.30
2016,11,23,16,17,20.20
2016,11,23,16,18,20.70
2016,11,23,16,19,17.80
2016,11,23,16,20,18.70
2016,11,23,16,21,17.00
2016,11,23,16,22,15.90
2016,11,23,16,23,15.90
2016,11,23,16,24,16.50
2016,11,23,16,25,15.20
2016,11,23,16,26,15.40
2016,11,23,16,27,17.80
2016,11,23,16,28,16.90
2016,11,23,16,29,15.70
2016,11,23,16,30,16.30
2016,11,23,16,31,15.90
2016,11,23,16,32,12.80
2016,11,23,16,33,17.00
2016,11,23,16,34,17.20
2016,11,23,16,35,17.80
2016,11,23,16,36,16.50
2016,11,23,16,37,15.40
2016,11,23,16,38,18.10
2016,11,23,16,39,20.60
2016,11,23,16,40,19.10
2016,11,23,16,41,19.30
2016,11,23,16,42,19.80
2016,11,23,16,43,18.90
2016,11,23,16,44,23.90
2016,11,23,16,45,24.10
2016,11,23,16,46,24.10
2016,11,23,16,47,24.10
2016,11,23,16,48,26.30
2016,11,23,16,49,23.00
2016,11,23,16,50,24.10
2016,11,23,16,51,26.30
2016,11,23,16,53,30.70
2016,11,23,16,54,29.40
2016,11,23,16,56,23.50
2016,11,23,16,57,23.00
2016,11,23,16,58,20.40
2016,11,23,16,59,21.50
2016,11,23,17,01,15.90
2016,11,23,17,02,16.50
2016,11,23,17,03,20.60
2016,11,23,17,04,20.90
2016,11,23,17,06,16.10
2016,11,23,17,07,14.80
2016,11,23,17,08,16.70
2016,11,23,17,09,18.90
2016,11,23,17,11,18.90
2016,11,23,17,12,18.70
2016,11,23,17,13,18.70
2016,11,23,17,14,15.60
2016,11,23,17,16,18.70
2016,11,23,17,17,20.00
2016,11,23,17,18,20.70
2016,11,23,17,19,19.60
2016,11,23,17,21,19.60
2016,11,23,17,22,20.00
2016,11,23,17,23,18.00
2016,11,23,17,24,18.10
2016,11,23,17,26,18.90
2016,11,23,17,27,14.80
2016,11,23,17,28,16.90
2016,11,23,17,29,16.30
2016,11,23,17,31,17.40
2016,11,23,17,32,17.00
2016,11,23,17,33,21.70
2016,11,23,17,34,20.20
2016,11,23,17,36,21.10
2016,11,23,17,37,21.90
2016,11,23,17,38,19.60
2016,11,23,17,39,19.10
2016,11,23,17,41,21.10
2016,11,23,17,42,24.30
2016,11,23,17,43,24.60
2016,11,23,17,44,23.00
2016,11,23,17,46,16.50
2016,11,23,17,47,15.00
2016,11,23,17,48,16.10
2016,11,23,17,49,16.50
2016,11,23,17,51,12.00
2016,11,23,17,52,10.70
2016,11,23,17,53,11.90
2016,11,23,17,54,12.20
2016,11,23,17,56,10.90
2016,11,23,17,57,8.90
2016,11,23,17,58,7.60
2016,11,23,17,59,8.90
2016,11,23,18,01,13.30
2016,11,23,18,02,10.90
2016,11,23,18,03,9.60
2016,11,23,18,04,9.30
2016,11,23,18,06,9.40
2016,11,23,18,07,8.00
2016,11,23,18,08,8.30
2016,11,23,18,09,10.20
2016,11,23,18,10,14.10
2016,11,23,18,11,11.50
2016,11,23,18,12,13.70
2016,11,23,18,13,10.90
2016,11,23,18,14,9.40
2016,11,23,18,15,9.80
2016,11,23,18,16,9.80
2016,11,23,18,17,10.90
2016,11,23,18,18,8.50
2016,11,23,18,19,10.00
2016,11,23,18,20,8.30
2016,11,23,18,21,8.90
2016,11,23,18,22,8.10
2016,11,23,18,23,7.80
2016,11,23,18,24,8.70
2016,11,23,18,25,6.50
2016,11,23,18,26,6.70
2016,11,23,18,27,8.90
2016,11,23,18,28,10.60
2016,11,23,18,29,13.10
2016,11,23,18,30,14.40
2016,11,23,18,31,17.20
2016,11,23,18,32,23.10
2016,11,23,18,33,23.70
2016,11,23,18,34,24.60
2016,11,23,18,35,27.00
2016,11,23,18,36,27.40
2016,11,23,18,37,23.30
2016,11,23,18,38,20.90
2016,11,23,18,39,25.70
2016,11,23,18,40,27.00
2016,11,23,18,41,25.90
2016,11,23,18,42,28.90
2016,11,23,18,43,30.00
2016,11,23,18,44,28.90
2016,11,23,18,45,27.40
2016,11,23,18,46,26.10
2016,11,23,18,47,27.40
2016,11,23,18,48,28.50
2016,11,23,18,49,33.20
2016,11,23,18,50,33.20
2016,11,23,18,51,32.80
2016,11,23,18,52,31.90
2016,11,23,18,53,28.30
2016,11,23,18,54,25.70
2016,11,23,18,55,27.80
2016,11,23,18,56,27.00
2016,11,23,18,57,29.30
2016,11,23,18,58,23.10
2016,11,23,18,59,23.70
2016,11,23,19,00,27.00
2016,11,23,19,01,27.40
2016,11,23,19,02,28.00
2016,11,23,19,03,28.00
2016,11,23,19,04,29.10
2016,11,23,19,05,30.20
2016,11,23,19,06,27.60
2016,11,23,19,07,27.40
2016,11,23,19,08,27.20
2016,11,23,19,09,31.70
2016,11,23,19,10,33.70
2016,11,23,19,11,32.80
2016,11,23,19,12,34.40
2016,11,23,19,13,36.90
2016,11,23,19,14,32.80
2016,11,23,19,15,33.00
2016,11,23,19,16,34.40
2016,11,23,19,17,29.10
2016,11,23,19,18,26.70
2016,11,23,19,19,34.40
2016,11,23,19,20,31.90
2016,11,23,19,21,33.30
2016,11,23,19,22,31.50
2016,11,23,19,23,31.50
2016,11,23,19,24,30.20
2016,11,23,19,25,33.20
2016,11,23,19,27,30.20
2016,11,23,19,28,28.00
2016,11,23,19,29,28.70
2016,11,23,19,31,26.50
2016,11,23,19,32,23.10
2016,11,23,19,33,27.80
2016,11,23,19,34,29.40
2016,11,23,19,36,24.30
2016,11,23,19,37,23.70
2016,11,23,19,38,27.80
2016,11,23,19,39,32.20
2016,11,23,19,41,28.20
2016,11,23,19,42,31.50
2016,11,23,19,43,30.70
2016,11,23,19,44,30.00
2016,11,23,19,46,27.60
2016,11,23,19,47,27.80
2016,11,23,19,48,24.60
2016,11,23,19,49,26.90
2016,11,23,19,51,28.20
2016,11,23,19,52,28.00
2016,11,23,19,53,26.30
2016,11,23,19,54,25.60
2016,11,23,19,56,30.70
2016,11,23,19,57,26.30
2016,11,23,19,58,24.10
2016,11,23,19,59,22.40
2016,11,23,20,01,28.20
2016,11,23,20,02,23.90
2016,11,23,20,03,22.40
2016,11,23,20,04,20.20
2016,11,23,20,06,23.10
2016,11,23,20,07,23.50
2016,11,23,20,08,23.30
2016,11,23,20,09,20.00
2016,11,23,20,11,24.60
2016,11,23,20,12,26.10
2016,11,23,20,13,26.10
2016,11,23,20,14,23.00
2016,11,23,20,16,25.00
2016,11,23,20,17,29.60
2016,11,23,20,18,27.60
2016,11,23,20,19,27.40
2016,11,23,20,21,29.30
2016,11,23,20,22,26.30
2016,11,23,20,23,25.70
2016,11,23,20,24,26.30
2016,11,23,20,26,24.60
2016,11,23,20,27,29.60
2016,11,23,20,28,29.30
2016,11,23,20,29,28.90
2016,11,23,20,31,26.30
2016,11,23,20,32,22.60
2016,11,23,20,33,22.00
2016,11,23,20,34,27.00
2016,11,23,20,36,23.30
2016,11,23,20,37,27.00
2016,11,23,20,38,25.40
2016,11,23,20,39,28.70
2016,11,23,20,41,25.40
2016,11,23,20,42,30.60
2016,11,23,20,43,27.80
2016,11,23,20,44,27.40
2016,11,23,20,46,29.40
2016,11,23,20,47,32.40
2016,11,23,20,48,32.20